| time (UTC) | temp C | wind direction | speed KPH | gust KPH | rain 1hr cm | rain 24hr cm | rain mn cm | humidity % | barometer mb |
| 20260902161521 | 27 | 274 | 1.6 | 8.0 | 0.00 | 0.18 | 0.00 | 75 | 1018.4 |
| 20260902160107 | 27 | 99 | 0.0 | 8.0 | 0.00 | 0.18 | 0.00 | 76 | 1018.4 |
| 20260902154542 | 27 | 20 | 1.6 | 8.0 | 0.00 | 0.18 | 0.00 | 77 | 1018.3 |
| 20260902153112 | 26 | 225 | 3.2 | 8.0 | 0.00 | 0.18 | 0.00 | 77 | 1018.5 |
| 20260902151544 | 26 | 153 | 3.2 | 11.3 | 0.00 | 0.18 | 0.00 | 81 | 1018.8 |
| 20260902150021 | 25 | 258 | 4.8 | 12.9 | 0.00 | 0.18 | 0.00 | 80 | 1018.8 |
| 20260902144603 | 26 | 235 | 4.8 | 17.7 | 0.00 | 0.18 | 0.00 | 80 | 1018.7 |
| 20260902143027 | 26 | 240 | 3.2 | 12.9 | 0.00 | 0.18 | 0.00 | 81 | 1018.6 |
| 20260902141502 | 26 | 41 | 4.8 | 14.5 | 0.00 | 0.18 | 0.00 | 82 | 1018.5 |
| 20260902140046 | 25 | 351 | 1.6 | 14.5 | 0.00 | 0.18 | 0.00 | 84 | 1018.4 |
| 20260902134519 | 25 | 175 | 3.2 | 11.3 | 0.00 | 0.18 | 0.00 | 84 | 1018.1 |
| 20260902133102 | 25 | 221 | 3.2 | 9.7 | 0.00 | 0.18 | 0.00 | 84 | 1018.0 |
| 20260902131528 | 25 | 234 | 3.2 | 14.5 | 0.00 | 0.18 | 0.00 | 84 | 1017.7 |
| 20260902130109 | 25 | 7 | 3.2 | 14.5 | 0.00 | 0.18 | 0.00 | 85 | 1017.6 |
| 20260902124535 | 25 | 233 | 3.2 | 9.7 | 0.00 | 0.18 | 0.00 | 85 | 1017.6 |
| 20260902123006 | 25 | 271 | 0.0 | 9.7 | 0.00 | 0.18 | 0.00 | 87 | 1017.6 |
| 20260902121548 | 24 | 248 | 3.2 | 8.0 | 0.00 | 0.18 | 0.00 | 88 | 1017.6 |
| 20260902120014 | 23 | 136 | 1.6 | 4.8 | 0.00 | 0.18 | 0.00 | 89 | 1017.7 |
| 20260902114553 | 23 | 354 | 1.6 | 14.5 | 0.00 | 0.18 | 0.00 | 90 | 1017.6 |
| 20260902113024 | 23 | 344 | 1.6 | 9.7 | 0.00 | 0.18 | 0.00 | 90 | 1017.4 |
| 20260902111613 | 23 | 10 | 1.6 | 9.7 | 0.00 | 0.18 | 0.00 | 91 | 1017.2 |
| 20260902110051 | 23 | 213 | 1.6 | 11.3 | 0.00 | 0.18 | 0.00 | 91 | 1017.1 |
| 20260902104515 | 23 | 257 | 0.0 | 6.4 | 0.00 | 0.18 | 0.00 | 92 | 1016.9 |
| 20260902103048 | 23 | 346 | 3.2 | 8.0 | 0.00 | 0.18 | 0.00 | 93 | 1016.8 |
| 20260902101515 | 23 | 278 | 0.0 | 3.2 | 0.00 | 0.18 | 0.00 | 94 | 1016.6 |
| 20260902100056 | 22 | 349 | 0.0 | 3.2 | 0.00 | 0.18 | 0.00 | 94 | 1016.7 |
| 20260902094526 | 22 | 224 | 0.0 | 4.8 | 0.00 | 0.18 | 0.00 | 94 | 1016.7 |
| 20260902093108 | 22 | 119 | 0.0 | 3.2 | 0.00 | 0.18 | 0.00 | 93 | 1016.5 |
| 20260902091534 | 22 | 241 | 0.0 | 4.8 | 0.00 | 0.18 | 0.00 | 93 | 1016.4 |
| 20260902090010 | 22 | 34 | 0.0 | 4.8 | 0.00 | 0.18 | 0.00 | 93 | 1016.5 |
| 20260902084550 | 22 | 36 | 0.0 | 8.0 | 0.00 | 0.18 | 0.00 | 93 | 1016.4 |
| 20260902083020 | 22 | 267 | 1.6 | 6.4 | 0.00 | 0.18 | 0.00 | 93 | 1016.3 |
| 20260902081558 | 22 | 238 | 1.6 | 6.4 | 0.00 | 0.18 | 0.00 | 93 | 1016.1 |
| 20260902080029 | 22 | 163 | 1.6 | 4.8 | 0.00 | 0.18 | 0.00 | 92 | 1016.0 |
| 20260902074605 | 22 | 279 | 0.0 | 4.8 | 0.00 | 0.18 | 0.00 | 91 | 1016.0 |
| 20260902073045 | 22 | 60 | 0.0 | 6.4 | 0.00 | 0.18 | 0.00 | 90 | 1015.6 |
| 20260902071511 | 22 | 187 | 0.0 | 8.0 | 0.00 | 0.18 | 0.00 | 90 | 1015.7 |
| 20260902070054 | 22 | 243 | 1.6 | 4.8 | 0.00 | 0.18 | 0.00 | 90 | 1015.7 |
| 20260902064536 | 22 | 265 | 0.0 | 4.8 | 0.00 | 0.18 | 0.00 | 90 | 1015.8 |
| 20260902063108 | 22 | 44 | 0.0 | 3.2 | 0.00 | 0.18 | 0.00 | 90 | 1015.6 |
| 20260902061541 | 22 | 305 | 0.0 | 6.4 | 0.00 | 0.18 | 0.00 | 89 | 1015.8 |
| 20260902060009 | 23 | 44 | 0.0 | 1.6 | 0.00 | 0.18 | 0.00 | 89 | 1015.9 |
| 20260902054554 | 23 | 215 | 0.0 | 4.8 | 0.00 | 0.18 | 0.00 | 88 | 1015.5 |
| 20260902053022 | 23 | 85 | 0.0 | 1.6 | 0.00 | 0.18 | 0.00 | 88 | 1015.3 |
| 20260902051610 | 23 | 34 | 0.0 | 3.2 | 0.00 | 0.18 | 0.00 | 88 | 1015.6 |
| 20260902050040 | 23 | 153 | 0.0 | 0.0 | 0.00 | 0.18 | 0.00 | 87 | 1015.6 |
| 20260902044508 | 23 | 116 | 0.0 | 3.2 | 0.00 | 0.18 | 0.00 | 86 | 1015.4 |
| 20260902043048 | 23 | 175 | 0.0 | 6.4 | 0.00 | 0.18 | 0.00 | 86 | 1015.3 |
| 20260902041533 | 23 | 160 | 0.0 | 3.2 | 0.00 | 0.18 | 0.00 | 86 | 1015.6 |
| 20260902040052 | 23 | 160 | 1.6 | 6.4 | 0.00 | 0.18 | 0.00 | 85 | 1016.0 |
| 20260902034521 | 22 | 164 | 0.0 | 3.2 | 0.00 | 0.18 | 0.18 | 87 | 1015.8 |
| 20260902033102 | 22 | 33 | 0.0 | 4.8 | 0.03 | 0.18 | 0.18 | 87 | 1015.8 |
| 20260902031529 | 22 | 228 | 1.6 | 9.7 | 0.18 | 0.18 | 0.18 | 88 | 1016.3 |
| 20260902030110 | 22 | 197 | 1.6 | 8.0 | 0.18 | 0.18 | 0.18 | 89 | 1016.2 |
| 20260902024648 | 22 | 6 | 4.8 | 12.9 | 0.18 | 0.18 | 0.18 | 89 | 1016.8 |
| 20260902023006 | 23 | 14 | 8.0 | 22.5 | 0.13 | 0.13 | 0.13 | 85 | 1016.9 |
| 20260902021545 | 27 | 30 | 3.2 | 8.0 | 0.00 | 0.00 | 0.00 | 85 | 1015.2 |
| 20260902020032 | 27 | 173 | 0.0 | 4.8 | 0.00 | 0.00 | 0.00 | 84 | 1013.4 |
| 20260902014608 | 27 | 167 | 0.0 | 6.4 | 0.00 | 0.00 | 0.00 | 84 | 1013.3 |
| 20260902013033 | 27 | 158 | 0.0 | 4.8 | 0.00 | 0.00 | 0.00 | 84 | 1012.6 |
| 20260902011608 | 27 | 117 | 0.0 | 4.8 | 0.00 | 0.00 | 0.00 | 82 | 1012.8 |
| 20260902010038 | 27 | 150 | 1.6 | 6.4 | 0.00 | 0.00 | 0.00 | 83 | 1012.3 |
| 20260902004514 | 26 | 142 | 0.0 | 3.2 | 0.00 | 0.00 | 0.00 | 85 | 1012.4 |
| 20260902003055 | 27 | 161 | 0.0 | 8.0 | 0.00 | 0.00 | 0.00 | 85 | 1012.6 |
| 20260902001526 | 27 | 146 | 0.0 | 0.0 | 0.00 | 0.00 | 0.00 | 84 | 1012.5 |
| 20260902000108 | 27 | 147 | 0.0 | 4.8 | 0.00 | 0.00 | 0.00 | 85 | 1012.4 |
| 20260901234534 | 27 | 71 | 0.0 | 4.8 | 0.00 | 0.00 | 0.00 | 84 | 1012.5 |
| 20260901233112 | 27 | 171 | 0.0 | 3.2 | 0.00 | 0.00 | 0.00 | 81 | 1012.8 |
| 20260901231547 | 27 | 127 | 1.6 | 6.4 | 0.00 | 0.00 | 0.00 | 80 | 1012.8 |
| 20260901230020 | 27 | 144 | 0.0 | 4.8 | 0.00 | 0.00 | 0.00 | 84 | 1012.8 |
| 20260901224557 | 27 | 131 | 1.6 | 11.3 | 0.00 | 0.00 | 0.00 | 85 | 1012.7 |
| 20260901223041 | 27 | 130 | 1.6 | 4.8 | 0.00 | 0.00 | 0.00 | 83 | 1012.8 |
| 20260901221615 | 28 | 78 | 1.6 | 6.4 | 0.00 | 0.00 | 0.00 | 83 | 1012.9 |
| 20260901220048 | 28 | 138 | 3.2 | 8.0 | 0.00 | 0.00 | 0.00 | 83 | 1013.1 |
| 20260901214505 | 28 | 99 | 3.2 | 9.7 | 0.00 | 0.00 | 0.00 | 82 | 1013.0 |
| 20260901213043 | 28 | 65 | 1.6 | 8.0 | 0.00 | 0.00 | 0.00 | 82 | 1013.2 |
| 20260901211514 | 28 | 186 | 1.6 | 9.7 | 0.00 | 0.00 | 0.00 | 82 | 1013.2 |
| 20260901210111 | 28 | 98 | 1.6 | 9.7 | 0.00 | 0.00 | 0.00 | 81 | 1013.3 |
| 20260901204538 | 28 | 113 | 4.8 | 12.9 | 0.00 | 0.00 | 0.00 | 81 | 1013.2 |
| 20260901203012 | 28 | 65 | 3.2 | 12.9 | 0.00 | 0.00 | 0.00 | 80 | 1013.2 |
| 20260901201546 | 28 | 169 | 4.8 | 12.9 | 0.00 | 0.00 | 0.00 | 79 | 1013.1 |
| 20260901200014 | 29 | 106 | 3.2 | 12.9 | 0.00 | 0.00 | 0.00 | 76 | 1013.6 |
| 20260901194603 | 30 | 158 | 1.6 | 8.0 | 0.00 | 0.00 | 0.00 | 75 | 1013.9 |
| 20260901193019 | 30 | 136 | 0.0 | 11.3 | 0.00 | 0.00 | 0.00 | 75 | 1013.7 |
| 20260901191606 | 30 | 166 | 3.2 | 8.0 | 0.00 | 0.00 | 0.00 | 73 | 1013.7 |
| 20260901190042 | 31 | 128 | 0.0 | 4.8 | 0.00 | 0.00 | 0.00 | 71 | 1013.8 |
| 20260901184607 | 31 | 87 | 0.0 | 6.4 | 0.00 | 0.00 | 0.00 | 68 | 1014.0 |
| 20260901183040 | 31 | 51 | 0.0 | 4.8 | 0.00 | 0.00 | 0.00 | 68 | 1014.1 |
| 20260901181511 | 31 | 55 | 0.0 | 8.0 | 0.00 | 0.00 | 0.00 | 68 | 1014.3 |
| 20260901180055 | 31 | 20 | 0.0 | 3.2 | 0.00 | 0.00 | 0.00 | 67 | 1014.3 |
| 20260901174531 | 31 | 251 | 0.0 | 3.2 | 0.00 | 0.00 | 0.00 | 64 | 1014.6 |
| 20260901173105 | 33 | 55 | 0.0 | 6.4 | 0.00 | 0.00 | 0.00 | 61 | 1014.6 |
| 20260901171533 | 33 | 73 | 1.6 | 6.4 | 0.00 | 0.00 | 0.00 | 59 | 1014.6 |
| 20260901170005 | 33 | 180 | 1.6 | 9.7 | 0.00 | 0.00 | 0.00 | 63 | 1014.7 |
| 20260901164548 | 32 | 76 | 1.6 | 4.8 | 0.00 | 0.00 | 0.00 | 65 | 1014.8 |
| 20260901163024 | 32 | 221 | 1.6 | 6.4 | 0.00 | 0.00 | 0.00 | 65 | 1015.0 |